Date,TemperatureHighF,TemperatureAvgF,TemperatureLowF,DewpointHighF,DewpointAvgF,DewpointLowF,HumidityHigh,HumidityAvg,HumidityLow,PressureMaxIn,PressureMinIn,WindSpeedMaxMPH,WindSpeedAvgMPH,GustSpeedMaxMPH,PrecipitationSumIn
2013-1-1,28.0,19.3,6.0,23.0,13.0,0.0,95,77,53,29.88,29.72,10,3,16,0.00
2013-1-2,24.0,10.2,4.0,11.0,3.9,-2.0,83,76,57,30.04,29.85,7,4,8,0.39
2013-1-3,25.0,14.4,5.0,17.0,8.2,1.0,93,77,53,30.07,29.88,8,4,15,0.39
2013-1-4,34.0,23.0,19.0,19.0,15.9,11.0,90,75,53,29.91,29.78,11,6,23,0.00
2013-1-5,33.0,22.7,14.0,22.0,17.2,12.0,97,80,60,30.19,29.85,10,3,23,0.00
2013-1-6,40.0,26.1,18.0,27.0,21.7,16.0,100,84,58,30.10,29.85,9,3,15,0.00
2013-1-7,40.0,26.5,14.0,26.0,19.1,11.0,96,75,49,30.29,29.91,8,4,17,0.00
2013-1-8,42.0,27.6,19.0,25.0,18.5,14.0,92,71,43,30.32,30.16,2,2,2,0.00
2013-1-9,40.0,30.1,18.0,32.0,22.9,15.0,89,75,52,30.32,29.97,13,2,25,0.00
2013-1-10,43.0,29.6,19.0,25.0,20.3,16.0,91,69,49,30.51,30.13,10,4,26,0.00
2013-1-11,37.0,30.0,19.0,35.0,22.2,11.0,100,75,40,30.45,30.07,10,4,17,0.04
2013-1-12,57.0,41.7,33.0,50.0,39.9,33.0,100,94,69,30.13,30.04,5,2,7,0.04
2013-1-13,53.0,44.1,36.0,52.0,43.8,36.0,100,99,91,30.13,29.97,12,2,17,0.00
2013-1-14,49.0,38.2,24.0,49.0,34.6,18.0,100,87,57,30.26,29.91,9,3,21,0.08
2013-1-15,33.0,23.8,18.0,21.0,18.0,16.0,91,79,59,30.32,30.16,4,1,6,0.04
2013-1-16,31.0,24.7,20.0,29.0,23.5,17.0,100,95,82,30.19,29.78,6,2,11,0.25
2013-1-17,32.0,22.2,13.0,25.0,17.9,7.0,100,83,71,30.04,29.78,10,3,17,0.04
2013-1-18,22.0,11.5,1.0,7.0,1.2,-5.0,78,63,44,30.29,29.94,7,3,18,0.00
2013-1-19,42.0,31.7,16.0,23.0,15.4,4.0,59,51,43,30.16,29.78,14,6,23,0.00
2013-1-20,41.0,29.8,12.0,29.0,17.0,3.0,87,60,39,29.91,29.53,18,8,31,0.00
2013-1-21,19.0,12.2,6.0,12.0,6.5,1.0,96,79,53,29.94,29.66,8,4,15,0.00
2013-1-22,15.0,3.9,-5.0,7.0,-8.1,-23.0,88,60,40,29.94,29.66,10,4,23,0.00
2013-1-23,14.0,-2.0,-12.0,-4.0,-19.3,-28.0,47,42,40,30.01,29.91,9,3,15,0.00
2013-1-24,19.0,0.3,-13.0,2.0,-15.9,-29.0,52,45,44,30.19,29.91,10,4,20,0.00
2013-1-25,21.0,6.7,-3.0,2.0,-9.5,-19.0,54,46,42,30.23,29.91,8,2,11,0.00
2013-1-26,23.0,8.5,-2.0,6.0,-6.3,-16.0,61,51,42,30.16,29.85,8,3,20,0.00
2013-1-27,33.0,14.9,4.0,10.0,-1.3,-9.0,80,49,32,30.35,30.16,6,3,17,0.00
2013-1-28,31.0,21.1,8.0,31.0,15.1,-7.0,100,79,49,30.35,29.88,9,3,13,0.08
2013-1-29,43.0,36.1,31.0,39.0,34.8,31.0,100,96,75,30.10,29.91,7,3,13,0.25
2013-1-30,54.0,47.6,40.0,53.0,47.5,40.0,100,99,94,30.01,29.37,18,9,32,0.21
2013-1-31,48.0,25.6,15.0,48.0,15.1,4.0,100,65,51,29.59,29.18,19,10,33,0.71
2013-2-1,24.0,13.1,8.0,10.0,4.7,1.0,83,69,51,30.01,29.56,9,5,21,0.05
2013-2-2,21.0,11.5,6.0,6.0,1.9,-1.0,75,65,45,30.10,29.88,11,6,15,0.00
2013-2-3,27.0,13.6,6.0,14.0,4.6,-3.0,92,67,56,29.91,29.66,5,2,9,0.00
2013-2-4,19.0,11.8,8.0,11.0,3.2,-2.0,90,69,53,29.85,29.63,8,4,15,0.00
2013-2-5,34.0,19.3,9.0,18.0,10.7,-2.0,91,70,50,29.85,29.75,6,2,10,0.00
2013-2-6,33.0,18.7,8.0,19.0,10.0,-6.0,100,70,50,30.26,29.78,8,4,13,0.00
2013-2-7,34.0,17.1,4.0,14.0,2.5,-10.0,72,53,39,30.35,30.23,3,3,3,0.00
2013-2-8,24.0,19.3,17.0,22.0,16.9,5.0,97,90,59,30.26,29.69,8,4,8,0.04
2013-2-9,31.0,14.9,4.0,15.0,6.0,-8.0,96,70,41,30.23,29.72,8,7,17,0.04
2013-2-10,49.0,18.8,-3.0,16.0,-1.5,-14.0,73,45,7,30.35,30.19,6,2,91,0.00
2013-2-11,43.0,33.0,27.0,39.0,27.6,4.0,100,84,32,30.19,29.63,17,6,23,0.00
2013-2-12,30.0,26.7,22.0,26.0,21.9,15.0,89,82,74,29.88,29.66,9,6,23,0.00
2013-2-13,46.0,28.6,21.0,27.0,18.8,16.0,84,68,45,29.85,29.66,9,3,10,0.00
2013-2-14,39.0,27.1,18.0,26.0,19.5,13.0,100,73,54,29.91,29.66,8,2,9,0.00
2013-2-15,41.0,32.0,25.0,28.0,24.1,18.0,100,73,55,29.94,29.85,10,4,17,0.00
2013-2-16,37.0,20.5,14.0,22.0,12.2,3.0,100,71,48,29.97,29.75,6,2,11,0.04
2013-2-17,23.0,10.3,3.0,5.0,-2.8,-10.0,70,55,43,29.78,29.59,13,5,23,0.04
2013-2-18,29.0,13.0,1.0,8.0,-2.4,-12.0,59,50,41,30.10,29.82,12,5,22,0.00
2013-2-19,38.0,28.0,17.0,29.0,21.1,5.0,100,77,53,30.07,29.59,14,4,27,0.12
2013-2-20,27.0,16.5,11.0,23.0,8.4,3.0,96,71,50,29.82,29.63,13,6,23,0.12
2013-2-21,29.0,12.9,9.0,12.0,5.6,3.0,82,73,48,30.29,29.78,11,5,23,0.00
2013-2-22,44.0,21.8,10.0,29.0,16.0,4.0,97,79,50,30.32,30.16,10,4,17,0.00
2013-2-23,34.0,29.6,24.0,34.0,29.0,20.0,100,98,84,30.16,29.82,10,5,17,0.00
2013-2-24,45.0,29.8,24.0,38.0,27.5,20.0,100,91,59,29.94,29.72,9,2,17,0.00
2013-2-25,38.0,28.4,20.0,29.0,24.5,19.0,100,86,67,30.23,29.91,6,2,10,0.00
2013-2-26,38.0,28.6,18.0,33.0,23.9,17.0,100,84,64,30.26,29.91,10,4,18,0.00
2013-2-27,42.0,32.6,25.0,39.0,32.4,25.0,100,99,88,29.94,29.50,13,4,20,0.92
2013-2-28,43.0,34.0,28.0,36.0,31.3,26.0,100,91,68,29.59,29.53,5,1,7,0.13
2013-3-1,43.0,30.0,23.0,31.0,26.1,22.0,97,86,63,29.75,29.59,7,3,12,0.04
2013-3-2,36.0,23.7,17.0,25.0,19.9,15.0,97,86,64,29.75,29.66,6,3,13,0.00
2013-3-3,37.0,20.8,13.0,22.0,14.9,11.0,93,79,55,29.72,29.63,7,3,15,0.00
2013-3-4,36.0,21.5,15.0,22.0,17.5,13.0,100,86,53,29.88,29.69,11,4,24,0.00
2013-3-5,50.0,28.6,20.0,34.0,23.6,20.0,100,84,51,30.01,29.85,6,3,14,0.00
2013-3-6,35.0,29.9,26.0,31.0,26.5,22.0,92,87,78,30.04,29.91,11,6,19,0.00
2013-3-7,35.0,28.3,24.0,28.0,24.2,21.0,97,85,66,30.10,29.97,9,3,15,0.08
2013-3-8,45.0,29.0,22.0,35.0,25.2,20.0,100,86,60,30.26,30.01,8,3,15,0.29
2013-3-9,60.0,31.1,16.0,30.0,19.8,14.0,100,70,25,30.32,30.23,4,2,7,0.17
2013-3-10,58.0,43.4,27.0,33.0,25.2,13.0,68,50,35,30.32,30.19,11,4,15,0.00
2013-3-11,51.0,43.5,38.0,43.0,31.2,21.0,100,64,45,30.23,30.01,15,6,34,0.00
2013-3-12,48.0,41.8,32.0,48.0,41.8,32.0,100,100,100,30.01,29.75,16,8,34,0.75
2013-3-13,42.0,31.6,25.0,32.0,25.4,22.0,100,79,53,29.88,29.75,7,4,14,0.05
2013-3-14,28.0,20.2,13.0,22.0,11.1,6.0,92,68,52,29.85,29.75,11,6,28,0.00
2013-3-15,31.0,23.7,15.0,27.0,17.8,8.0,96,78,58,29.85,29.63,11,5,17,0.00
2013-3-16,47.0,24.8,13.0,28.0,17.0,10.0,96,73,43,29.85,29.72,9,2,17,0.00
2013-3-17,31.0,20.6,11.0,17.0,10.9,7.0,90,67,47,30.23,29.85,9,3,17,0.00
2013-3-18,34.0,19.5,9.0,21.0,9.6,1.0,96,68,41,30.32,29.97,9,3,15,0.00
2013-3-19,42.0,29.7,22.0,35.0,27.1,16.0,100,90,73,29.97,29.63,12,5,25,0.24
2013-3-20,38.0,24.3,18.0,21.0,17.0,13.0,92,75,49,29.78,29.72,10,5,20,0.08
2013-3-21,48.0,24.0,8.0,24.0,12.7,5.0,100,65,37,29.75,29.59,7,3,11,0.00
2013-3-22,36.0,24.0,14.0,23.0,18.4,7.0,92,79,58,29.78,29.59,7,4,19,0.00
2013-3-23,42.0,28.9,23.0,27.0,21.0,17.0,96,74,48,29.85,29.72,10,5,19,0.00
2013-3-24,52.0,32.3,23.0,31.0,22.5,18.0,85,69,44,29.85,29.69,6,3,12,0.00
2013-3-25,46.0,31.6,25.0,29.0,24.1,21.0,86,74,51,29.72,29.47,8,4,13,0.00
2013-3-26,44.0,33.1,28.0,35.0,25.9,20.0,95,76,50,29.85,29.56,9,3,13,0.00
2013-3-27,48.0,34.0,24.0,33.0,25.8,20.0,96,73,51,29.94,29.82,6,4,15,0.00
2013-3-28,37.0,33.0,29.0,33.0,29.1,26.0,96,86,77,30.10,29.91,6,3,13,0.00
2013-3-29,45.0,34.4,28.0,34.0,29.3,26.0,93,82,64,30.13,30.04,7,3,13,0.00
2013-3-30,54.0,39.1,28.0,34.0,27.8,20.0,94,67,41,30.13,30.04,7,3,12,0.00
2013-3-31,49.0,38.0,27.0,37.0,29.0,20.0,100,72,51,30.10,29.69,16,6,26,0.17
2013-4-1,47.0,34.6,22.0,44.0,28.9,15.0,100,80,55,29.82,29.59,11,5,23,0.29
2013-4-2,33.0,24.0,18.0,18.0,13.9,11.0,87,66,49,29.97,29.78,11,6,23,0.04
2013-4-3,37.0,25.7,19.0,22.0,16.1,13.0,88,67,51,30.23,29.91,11,6,20,0.00
2013-4-4,54.0,35.2,19.0,29.0,21.3,13.0,89,60,38,30.29,29.97,10,4,23,0.00
2013-4-5,53.0,38.2,26.0,34.0,23.0,13.0,81,55,41,30.01,29.78,10,4,21,0.00
2013-4-6,48.0,32.6,21.0,21.0,15.4,10.0,86,52,30,30.26,29.94,10,4,18,0.00
2013-4-7,56.0,44.4,32.0,42.0,28.7,13.0,75,55,44,30.23,29.91,13,8,26,0.00
2013-4-8,68.0,51.5,36.0,45.0,40.2,34.0,100,68,42,30.10,29.97,6,3,13,0.00
2013-4-9,66.0,58.0,53.0,53.0,48.2,43.0,89,70,53,30.07,29.91,13,5,20,0.00
2013-4-10,59.0,52.2,45.0,55.0,50.4,43.0,100,94,72,30.01,29.88,6,2,11,0.46
2013-4-11,51.0,39.3,31.0,51.0,37.4,24.0,100,93,65,30.10,29.88,6,3,13,0.21
2013-4-12,37.0,34.1,31.0,37.0,34.1,31.0,100,100,97,30.07,29.72,15,3,30,0.33
2013-4-13,47.0,40.0,34.0,38.0,35.1,32.0,100,83,69,29.94,29.78,9,3,13,0.04
2013-4-14,46.0,35.9,28.0,34.0,28.9,23.0,96,76,56,30.19,29.91,9,3,15,0.00
2013-4-15,61.0,45.3,28.0,43.0,34.5,24.0,86,67,50,30.35,30.19,8,4,17,0.00
2013-4-16,56.0,49.8,41.0,55.0,47.2,34.0,100,91,73,30.35,30.10,15,8,35,0.25
2013-4-17,62.0,47.4,36.0,54.0,38.3,32.0,100,73,46,30.35,30.19,6,3,13,0.12
2013-4-18,56.0,47.6,40.0,45.0,38.4,32.0,91,71,61,30.35,30.19,12,6,26,0.00
2013-4-20,43.0,35.5,28.0,30.0,25.0,20.0,76,66,57,30.29,30.07,8,5,13,1.25
2013-4-21,50.0,35.6,24.0,31.0,23.6,18.0,87,63,45,30.60,30.29,6,3,12,0.04
2013-4-22,52.0,39.8,28.0,32.0,26.1,17.0,81,59,46,30.67,30.48,11,4,17,0.00
2013-4-23,45.0,40.9,35.0,42.0,37.2,31.0,100,87,70,30.48,30.13,9,4,13,0.00
2013-4-24,70.0,52.1,33.0,55.0,45.7,33.0,100,82,55,30.16,29.82,13,4,20,0.00
2013-4-25,59.0,45.6,34.0,55.0,33.9,24.0,93,66,41,30.29,29.82,13,4,20,0.08
2013-4-26,60.0,44.8,33.0,39.0,32.7,26.0,90,64,45,30.45,30.29,9,3,15,0.00
2013-4-27,67.0,48.6,28.0,44.0,34.1,23.0,86,60,38,30.48,30.29,7,2,13,0.00
2013-4-28,75.0,56.7,38.0,49.0,40.9,30.0,73,57,39,30.32,30.16,9,4,14,0.00
2013-4-29,52.0,47.5,45.0,48.0,44.5,39.0,100,90,64,30.26,30.16,13,6,18,0.08
2013-4-30,63.0,51.5,45.0,51.0,46.3,41.0,100,85,62,30.35,30.26,7,2,9,0.08
2013-5-1,72.0,56.6,39.0,48.0,40.6,33.0,83,58,36,30.51,30.38,7,3,13,0.00
2013-5-2,79.0,60.0,40.0,53.0,44.2,35.0,84,59,38,30.51,30.38,7,2,15,0.00
2013-5-3,69.0,57.0,46.0,48.0,42.1,34.0,80,59,43,30.48,30.35,7,4,15,0.00
2013-5-4,73.0,56.6,39.0,52.0,44.3,36.0,94,66,44,30.42,30.23,9,3,13,0.00
2013-5-5,73.0,55.8,38.0,46.0,40.2,34.0,100,61,33,30.32,30.23,8,3,14,0.00
2013-5-6,67.0,48.0,36.0,49.0,41.5,35.0,100,80,53,30.26,30.16,7,2,12,0.00
2013-5-7,75.0,59.6,45.0,59.0,52.1,45.0,100,79,43,30.23,30.13,8,3,13,0.00
2013-5-8,61.0,57.1,51.0,60.0,56.3,51.0,100,97,92,30.23,30.04,12,4,15,0.05
2013-5-9,63.0,54.0,48.0,58.0,52.4,48.0,100,95,76,30.10,29.97,4,2,6,0.05
2013-5-10,78.0,58.8,44.0,62.0,51.3,-99.9,100,83,54,30.10,30.01,7,2,11,0.00
2013-5-11,62.0,57.4,53.0,62.0,57.0,53.0,100,99,92,30.01,29.78,9,4,13,0.00
2013-5-12,59.0,48.0,35.0,53.0,40.5,-99.9,100,80,48,29.94,29.75,10,3,18,0.00
2013-5-13,46.0,36.6,29.0,37.0,29.6,25.0,94,76,64,30.13,29.91,9,3,20,0.00
2013-5-14,56.0,39.5,26.0,35.0,30.3,26.0,100,73,42,30.16,30.04,7,3,13,0.00
2013-5-15,66.0,49.5,33.0,58.0,42.5,26.0,96,77,66,30.10,29.72,11,5,19,0.04
2013-5-16,75.0,54.8,53.0,51.0,19.5,-99.9,75,57,41,29.94,29.82,9,4,22,0.04
2013-5-17,68.0,49.5,40.0,51.0,36.0,-99.9,92,74,51,30.29,29.94,7,2,13,0.00
2013-5-18,67.0,50.2,40.0,52.0,44.4,38.0,93,82,54,30.35,30.29,6,2,10,0.00
2013-5-19,55.0,52.0,47.0,54.0,51.2,45.0,100,97,89,30.35,30.23,7,3,12,0.00
2013-5-20,83.0,64.5,51.0,71.0,61.1,51.0,100,90,67,30.23,30.07,5,2,9,0.00
2013-5-21,81.0,66.5,58.0,71.0,64.1,58.0,100,93,67,30.10,29.94,4,2,9,0.00
2013-5-22,79.0,69.5,59.0,74.0,66.9,59.0,100,92,77,30.01,29.94,10,3,21,0.04
2013-5-23,71.0,63.5,57.0,66.0,61.8,56.0,100,94,85,30.04,29.85,10,3,21,0.00
2013-5-24,58.0,44.9,35.0,58.0,44.8,35.0,100,99,94,30.10,29.82,6,2,17,0.00
2013-5-25,39.0,37.1,35.0,39.0,37.0,35.0,100,100,97,30.07,29.97,8,5,19,0.00
2013-5-26,56.0,44.0,36.0,45.0,39.2,35.0,100,84,60,30.23,29.97,8,5,23,3.70
2013-5-27,70.0,52.1,33.0,49.0,41.0,33.0,100,70,43,30.29,30.23,9,3,13,0.08
2013-5-28,65.0,51.6,40.0,55.0,46.2,36.0,100,83,57,30.29,30.16,7,2,11,0.13
2013-5-29,78.0,64.6,52.0,72.0,62.6,52.0,100,94,79,30.19,30.10,9,3,15,2.16
2013-5-30,87.0,71.5,60.0,74.0,66.3,60.0,100,85,62,30.29,30.16,6,2,11,1.79
2013-5-31,90.0,79.3,61.0,76.0,69.4,61.0,100,73,57,30.32,30.13,9,3,15,0.04
2013-6-1,86.0,73.9,61.0,75.0,67.5,60.0,97,81,62,30.19,30.04,9,3,15,0.00
2013-6-2,80.0,71.1,60.0,73.0,66.2,-99.9,100,89,74,30.07,29.91,10,4,17,0.37
2013-6-3,69.0,59.7,46.0,63.0,55.9,44.0,100,88,69,30.04,29.97,5,2,10,0.37
2013-6-4,71.0,54.9,42.0,51.0,44.3,39.0,94,70,46,30.26,30.04,6,3,15,0.00
2013-6-5,76.0,55.4,39.0,55.0,45.6,37.0,94,73,44,30.32,30.16,6,2,10,0.09
2013-6-6,67.0,56.2,50.0,57.0,51.2,47.0,100,84,64,30.23,30.10,7,3,17,0.24
2013-6-7,56.0,53.2,50.0,56.0,53.2,50.0,100,100,100,30.10,29.85,9,3,13,0.53
2013-6-8,70.0,57.7,51.0,64.0,55.8,51.0,100,94,79,30.19,29.78,6,2,9,0.29
2013-6-9,78.0,59.4,49.0,64.0,55.0,49.0,100,87,63,30.32,30.16,5,1,10,0.00
2013-6-10,61.0,57.2,52.0,60.0,56.5,51.0,100,98,88,30.32,29.97,6,2,15,0.87
2013-6-11,66.0,59.6,55.0,64.0,59.1,55.0,100,98,92,29.97,29.72,9,4,21,1.24
2013-6-12,69.0,55.6,49.0,59.0,53.3,49.0,100,92,70,29.91,29.73,7,3,13,0.17
2013-6-13,54.0,51.1,48.0,54.0,51.1,48.0,100,100,100,29.79,29.51,7,3,19,1.45
2013-6-14,73.0,53.5,46.0,65.0,52.4,46.0,100,97,69,29.85,29.54,6,2,13,1.16
2013-6-15,72.0,54.1,47.0,58.0,49.4,45.0,100,86,55,29.95,29.85,6,1,10,0.17
2013-6-16,68.0,58.2,48.0,62.0,55.2,46.0,100,90,75,29.95,29.67,6,2,11,0.00
2013-6-17,79.0,65.9,56.0,68.0,61.7,56.0,100,88,63,29.88,29.79,9,3,14,0.46
2013-6-18,72.0,60.0,51.0,68.0,58.3,51.0,100,95,81,29.88,29.79,4,1,10,0.03
2013-6-19,72.0,53.5,47.0,55.0,48.0,44.0,100,84,51,30.11,29.85,3,1,11,0.00
2013-6-20,76.0,53.6,42.0,61.0,47.5,41.0,100,83,56,30.20,30.11,6,2,13,0.00
2013-6-22,80.0,73.1,67.0,68.0,65.8,63.0,87,78,66,30.20,30.07,9,3,12,0.00
2013-6-23,87.0,73.2,62.0,74.0,68.1,62.0,100,85,61,30.14,29.98,8,3,13,0.00
2013-6-24,87.0,69.2,60.0,75.0,66.2,59.0,100,91,66,30.04,29.95,6,1,12,0.00
2013-6-25,85.0,69.6,60.0,74.0,66.1,59.0,100,89,66,30.01,29.79,9,2,15,0.34
2013-6-26,79.0,69.4,63.0,72.0,66.7,62.0,100,91,79,29.82,29.76,6,2,10,0.08
2013-6-27,83.0,68.5,58.0,73.0,65.8,58.0,100,92,70,29.82,29.57,6,1,9,0.13
2013-6-28,77.0,69.3,63.0,71.0,66.1,63.0,100,90,77,29.51,29.32,10,5,23,1.13
2013-6-29,76.0,66.4,56.0,68.0,62.4,56.0,100,88,71,29.67,29.41,10,2,17,0.05
2013-6-30,82.0,67.4,58.0,72.0,64.2,58.0,100,90,69,29.88,29.67,6,2,11,0.00
2013-7-1,76.0,66.6,60.0,72.0,65.7,60.0,100,97,87,30.01,29.85,6,2,11,0.70
2013-7-2,79.0,69.8,65.0,74.0,68.5,65.0,100,96,82,30.14,30.01,8,3,15,0.84
2013-7-3,81.0,71.7,66.0,75.0,69.1,66.0,100,92,79,30.20,30.11,7,3,13,0.08
2013-7-4,85.0,74.1,66.0,76.0,70.6,66.0,100,89,73,30.20,30.14,9,3,13,0.08
2013-7-5,79.0,72.3,69.0,74.0,70.1,68.0,97,93,85,30.17,30.04,6,3,11,0.00
2013-7-6,83.0,73.6,69.0,74.0,70.4,68.0,100,90,74,30.11,30.01,4,2,10,0.00
2013-7-7,89.0,74.8,66.0,78.0,71.1,66.0,100,89,67,30.07,29.92,6,1,11,0.00
2013-7-8,81.0,69.6,65.0,73.0,66.2,-99.9,100,93,73,30.04,29.92,5,2,11,0.00
2013-7-9,84.0,68.8,60.0,73.0,66.2,60.0,100,93,66,30.07,29.95,5,1,9,0.00
2013-7-10,78.0,69.9,65.0,74.0,66.6,-99.9,100,93,84,29.98,29.79,6,3,15,0.08
2013-7-11,77.0,67.7,60.0,70.0,65.5,58.0,100,93,72,29.95,29.73,7,1,10,0.08
2013-7-12,78.0,66.8,59.0,70.0,62.7,57.0,96,87,69,30.14,29.95,5,2,10,0.00
2013-7-13,77.0,67.1,58.0,72.0,65.2,58.0,100,94,83,30.26,30.11,6,2,10,0.04
2013-7-14,84.0,71.5,63.0,77.0,69.4,63.0,100,94,78,30.32,30.23,3,1,7,0.17
2013-7-15,88.0,72.3,66.0,76.0,69.4,64.0,100,91,63,30.29,30.17,3,0,13,0.17
2013-7-16,83.0,68.8,63.0,74.0,65.7,62.0,100,91,73,30.23,30.17,2,0,4,0.00
2013-7-17,87.0,69.8,63.0,74.0,67.4,63.0,100,92,65,30.20,30.04,4,1,6,0.00
2013-7-18,89.0,75.7,69.0,77.0,71.9,68.0,100,89,68,30.11,29.95,4,1,9,0.00
2013-7-19,89.0,76.2,66.0,78.0,71.8,66.0,100,87,66,29.98,29.79,10,4,17,0.00
2013-7-20,83.0,71.7,62.0,75.0,67.3,-99.9,100,88,74,29.82,29.73,7,2,11,0.13
2013-7-21,81.0,64.1,56.0,69.0,60.8,56.0,100,90,64,29.95,29.82,4,1,6,0.16
2013-7-22,83.0,68.7,61.0,72.0,65.2,60.0,100,90,65,29.95,29.79,6,1,9,0.04
2013-7-23,81.0,70.5,61.0,74.0,67.9,61.0,100,92,76,29.79,29.57,4,1,7,0.37
2013-7-24,74.0,62.3,51.0,64.0,58.8,49.0,100,89,64,29.92,29.60,6,2,13,0.03
2013-7-25,73.0,54.9,48.0,60.0,51.2,46.0,100,88,64,30.01,29.92,6,2,11,0.00
2013-7-26,79.0,60.9,51.0,64.0,56.3,51.0,100,86,59,30.04,29.95,5,1,10,0.00
2013-7-27,80.0,64.2,53.0,66.0,59.6,53.0,100,86,60,30.04,29.92,8,2,17,0.00
2013-7-28,68.0,63.9,60.0,66.0,63.0,59.0,100,97,92,29.92,29.85,9,2,12,0.96
2013-7-29,72.0,71.8,71.0,65.0,63.3,63.0,80,75,74,30.01,29.98,2,2,4,0.46
2013-7-31,78.0,68.2,59.0,65.0,61.6,58.0,97,81,65,30.04,29.98,3,1,6,0.00
2013-8-1,65.0,60.8,58.0,63.0,60.4,58.0,100,99,93,30.01,29.79,9,2,17,0.08
2013-8-2,78.0,61.9,54.0,65.0,59.2,54.0,100,92,62,29.88,29.79,7,1,11,0.13
2013-8-3,76.0,62.1,54.0,63.0,56.7,51.0,100,84,55,29.85,29.79,6,2,11,0.09
2013-8-4,71.0,58.7,51.0,62.0,54.1,50.0,100,86,64,29.92,29.79,7,2,12,0.08
2013-8-5,72.0,54.9,48.0,54.0,49.7,43.0,97,84,52,29.98,29.92,5,1,10,0.08
2013-8-6,73.0,58.4,46.0,60.0,52.9,46.0,100,84,57,30.07,29.98,5,1,10,0.00
2013-8-7,67.0,62.2,56.0,64.0,60.8,56.0,100,95,88,30.07,29.98,9,3,13,0.00
2013-8-8,80.0,68.5,61.0,74.0,66.6,61.0,100,94,78,30.01,29.92,6,3,11,0.37
2013-8-9,77.0,69.0,66.0,74.0,68.3,65.0,100,98,90,29.95,29.79,5,2,8,1.08
2013-8-10,76.0,63.5,52.0,65.0,58.8,49.0,100,86,61,30.01,29.85,6,2,12,0.04
2013-8-11,73.0,57.8,45.0,62.0,53.6,45.0,100,87,63,30.04,29.98,5,1,10,0.00
2013-8-12,78.0,61.7,52.0,66.0,57.3,52.0,100,87,62,30.01,29.85,4,0,6,0.00
2013-8-13,73.0,62.3,58.0,68.0,59.6,-99.9,100,94,78,29.85,29.63,10,2,12,0.75
2013-8-14,67.0,55.0,47.0,56.0,51.4,46.0,97,88,67,29.98,29.70,6,3,12,0.04
2013-8-15,69.0,50.8,46.0,56.0,36.3,-99.9,100,80,61,30.07,29.92,6,1,10,0.00
2013-8-16,71.0,55.6,49.0,59.0,47.0,-99.9,100,84,63,30.14,30.04,5,1,10,0.00
2013-8-17,82.0,61.4,48.0,61.0,54.9,48.0,100,83,49,30.23,30.14,4,0,9,0.00
2013-8-18,72.0,62.4,55.0,65.0,59.2,54.0,100,90,73,30.20,30.07,2,0,4,0.00